Wind_Speed
6 2 11 5 3 4 8 4 11 7 1 2 4 10 10 10 10 8 9 9 8 9 10 7 5 3 6 4 3 4 2 2 2 4 4 5 5 7 8 9 9 10 13 15
4 10 2 4 2 4 11 17 6 4 2 5 12 10 13 4 6 8 9 10 9 9 12 13 4 6 4 3 1 3 3 3 3 4 8 10 11 12 13 14 14 13 14 17
8 4 3 6 1 8 4 12 3 6 4 4 10 11 7 5 4 5 7 10 8 11 14 15 16 10 9 10 7 6 6 7 8 11 13 13 13 15 16 16 19 23 20 22
3 4 3 6 12 4 8 3 4 6 6 2 9 10 12 4 7 5 7 10 10 11 11 16 16 18 13 13 13 9 6 8 11 10 12 15 16 16 16 20 22 23 28 27
9 4 7 6 5 2 5 4 3 7 11 12 12 12 5 8 9 9 12 5 10 7 10 11 13 14 13 15 16 8 7 8 9 11 12 15 19 21 23 25 28 31 29 31
16 7 6 5 5 3 2 4 9 4 9 10 13 18 13 9 7 4 11 5 11 7 8 9 11 12 14 12 16 17 8 7 11 14 16 18 20 21 24 26 28 30 34 37
16 13 14 6 7 5 8 8 10 2 2 8 9 12 8 11 14 13 13 10 11 9 10 15 16 17 18 17 13 17 13 10 13 12 12 13 13 14 14 17 21 23 26 29
10 5 12 2 3 7 8 11 3 7 7 4 7 6 13 11 8 2 3 6 7 8 11 12 20 21 23 21 18 17 19 16 15 14 15 15 16 16 18 21 25 28 31 34
13 12 3 2 2 6 5 11 10 15 12 11 5 17 11 6 6 4 3 5 8 9 12 17 20 27 20 20 23 25 22 23 22 19 19 19 19 20 21 25 29 33 37 38
4 9 5 1 3 3 4 7 11 11 4 10 16 7 10 7 3 6 6 8 9 10 14 18 25 20 16 19 23 26 29 29 27 26 25 24 25 23 24 26 29 34 39 43
6 13 5 5 1 7 9 12 14 11 14 11 7 7 4 6 1 7 6 9 10 11 13 19 24 19 12 21 26 32 34 27 31 29 29 27 25 26 27 28 33 39 45 50
5 10 9 6 6 3 3 5 6 12 11 16 13 11 10 6 4 3 8 12 10 15 20 22 20 20 18 24 30 33 33 32 32 29 28 26 25 26 29 31 36 42 46 50
9 5 10 8 3 3 1 5 9 8 9 14 10 3 7 11 8 9 5 3 8 15 17 25 23 20 17 28 34 39 42 37 35 28 25 26 27 30 32 35 39 44 47 50
5 8 12 16 11 12 11 11 10 12 15 17 18 21 23 10 6 6 8 11 15 17 19 22 25 23 17 28 35 38 41 39 34 29 28 29 32 34 34 34 36 38 41 48
5 11 13 15 15 15 14 15 16 14 13 16 20 17 8 10 9 8 8 14 17 17 13 15 22 16 21 28 33 34 31 26 24 30 32 29 31 33 34 34 35 37 39 38
7 14 10 12 12 13 17 19 19 19 15 16 12 11 9 9 9 12 15 15 11 12 12 14 14 18 22 37 37 39 19 21 23 27 33 30 34 34 33 37 38 43 37 35
4 7 11 14 14 15 16 7 12 11 10 13 12 6 8 11 14 18 19 12 14 17 18 18 20 21 27 32 47 18 2 12 16 24 30 35 37 37 42 40 38 35 34 35
9 5 12 16 16 13 16 20 6 6 7 6 6 9 9 13 12 12 14 15 20 18 20 21 17 17 25 30 30 23 27 23 26 30 35 38 39 41 41 40 39 36 34 35
12 11 11 10 17 21 19 14 6 4 7 12 8 7 8 11 16 9 20 25 30 25 12 16 16 15 19 27 34 34 30 35 38 39 39 39 37 39 40 42 42 37 35 35
10 9 13 12 11 15 10 7 3 5 10 4 4 5 9 14 17 20 33 25 14 17 16 18 19 21 25 29 31 32 31 35 39 42 44 42 41 44 45 48 47 46 32 32
15 12 17 20 23 23 9 8 6 6 2 4 7 10 15 17 25 23 15 13 15 17 18 20 25 27 31 35 38 40 43 44 45 48 51 49 47 47 49 52 50 42 37 28
15 18 20 22 22 15 14 8 8 6 11 15 19 22 24 20 14 13 14 18 20 22 25 27 29 27 35 38 42 45 47 47 48 48 48 49 49 50 47 45 44 40 40 39
24 19 20 13 13 15 13 10 12 13 16 24 30 16 13 14 14 14 17 19 25 27 28 32 33 35 35 37 38 40 39 40 41 41 42 43 43 42 41 38 38 36 35 36
21 22 17 16 15 8 11 8 12 14 25 22 13 12 11 14 16 18 22 27 32 30 29 30 32 33 33 33 33 34 35 38 38 37 37 37 39 42 41 38 37 31 27 23
15 16 13 13 15 20 15 12 13 14 18 12 12 13 15 15 18 20 23 30 34 31 35 35 34 35 37 35 33 33 36 35 35 36 37 37 38 37 33 31 30 26 23 21
17 16 10 6 9 12 20 24 17 15 12 13 15 17 19 18 21 24 27 34 34 36 36 41 38 35 34 38 39 34 34 36 36 36 33 33 35 32 30 28 27 27 23 20
Wind_Direction
316 59 176 102 177 272 265 323 92 59 77 241 84 159 149 157 171 175 192 202 195 196 195 211 149 163 190 143 133 127 103 57 27 21 15 357 355 350 349 346 340 327 317 309
276 225 64 336 245 314 10 353 14 85 84 255 97 95 136 133 168 194 199 204 210 206 216 223 240 211 229 261 276 282 285 284 294 323 320 321 319 320 320 317 311 305 302 301
186 320 325 287 265 332 251 317 331 142 106 99 124 114 100 107 140 188 191 212 215 221 211 235 249 269 232 238 273 272 265 278 290 301 308 311 310 314 312 308 303 299 295 294
197 99 320 285 123 74 68 328 296 239 166 203 189 123 88 138 158 195 189 198 204 208 220 224 245 256 259 251 269 281 280 278 289 296 304 308 310 311 306 299 299 293 294 295
298 319 269 279 149 235 249 303 326 38 114 273 12 53 198 184 195 180 175 169 192 196 212 214 232 247 254 242 247 255 256 273 288 297 300 304 306 306 303 302 302 301 295 291
258 272 276 277 309 221 311 303 322 281 143 206 211 186 193 216 217 261 176 189 186 209 208 217 218 227 241 226 246 252 260 267 283 288 295 298 302 305 306 306 304 301 301 300
278 262 242 273 269 275 269 328 312 35 206 231 216 220 154 160 166 181 198 238 199 202 246 227 226 231 227 217 233 232 274 273 279 281 290 297 304 312 323 327 328 316 302 293
271 262 215 231 268 321 296 293 65 266 290 251 203 110 164 132 130 163 276 252 276 272 271 247 255 242 236 230 231 251 263 257 262 259 272 283 300 311 322 328 333 332 324 316
201 245 132 176 245 299 343 329 325 297 342 73 46 91 78 172 188 108 29 289 271 276 280 279 273 258 237 238 237 254 275 255 259 259 269 281 291 304 317 326 332 335 333 323
247 253 192 32 264 226 335 329 330 331 42 306 106 108 167 165 133 20 330 309 303 306 300 293 326 300 265 245 247 252 273 256 253 260 267 277 285 293 306 317 326 330 331 328
166 280 318 239 225 39 328 319 341 335 336 314 350 75 302 155 280 306 312 318 315 301 289 281 282 283 319 266 261 264 270 262 252 257 266 274 282 295 306 316 322 327 330 329
237 171 234 186 214 20 339 7 327 346 327 324 339 336 98 68 4 9 349 329 307 299 299 300 296 303 288 262 262 262 272 272 256 256 267 275 285 296 304 311 318 325 329 329
352 254 301 7 308 25 262 4 333 307 294 307 314 228 48 294 327 358 10 353 332 326 320 312 312 308 270 265 266 272 272 272 259 259 270 279 289 296 302 309 316 321 326 326
277 305 308 315 145 283 298 312 314 302 307 310 304 318 330 360 1 340 322 312 317 314 305 313 302 314 265 259 268 272 274 274 254 260 275 283 291 299 306 314 319 323 328 324
259 278 301 308 314 317 316 303 297 299 284 292 303 309 19 19 27 11 344 332 325 307 307 328 314 312 278 270 273 274 271 255 263 276 282 289 297 301 306 312 318 319 320 317
260 271 275 293 286 302 313 310 298 286 285 292 296 82 50 26 15 352 343 337 303 302 307 290 319 305 284 278 277 280 269 262 267 281 285 293 303 304 306 314 309 309 305 310
294 318 336 308 317 312 294 352 318 304 307 316 331 13 6 6 358 346 337 315 295 277 309 306 287 299 291 286 299 232 6 252 268 279 285 298 301 304 311 303 297 295 297 302
283 294 287 287 303 297 311 316 330 308 323 323 316 313 348 336 325 349 317 303 315 318 311 305 308 282 275 288 302 286 276 283 267 271 294 307 310 305 304 296 293 293 294 297
254 279 290 316 298 304 311 311 315 333 301 309 275 280 315 311 309 325 289 296 306 314 303 293 271 275 277 273 276 284 285 270 278 289 300 300 295 294 295 294 293 291 292 296
237 275 266 263 278 278 357 344 316 270 273 333 1 318 320 313 321 308 306 318 320 296 295 284 276 260 261 268 271 277 282 284 290 295 295 292 291 290 290 293 300 298 303 291
293 289 281 299 303 300 319 342 307 280 250 308 331 321 314 319 310 317 323 293 278 281 279 280 277 279 282 286 291 294 297 297 297 296 295 294 290 290 292 294 294 295 289 274
315 312 305 299 287 299 320 314 337 264 263 266 280 301 314 314 319 310 305 296 286 288 287 290 296 295 296 301 299 297 296 296 295 295 296 298 297 296 294 294 292 289 283 291
307 305 292 282 284 319 304 301 286 268 276 284 302 316 314 312 308 305 299 298 296 300 304 307 304 307 305 303 300 298 299 300 299 303 304 304 301 296 295 291 287 292 288 288
281 284 282 282 277 277 282 280 279 278 295 310 312 309 305 299 301 304 297 296 298 305 311 311 312 311 312 312 306 302 303 301 305 309 313 309 303 298 291 289 286 280 279 281
276 287 289 281 276 256 268 287 308 307 299 307 302 303 297 303 305 304 300 298 304 309 308 311 310 312 313 315 314 309 304 306 311 309 310 310 313 313 303 285 277 266 263 269
271 261 267 236 305 286 242 262 293 304 305 306 306 293 306 306 302 303 298 306 310 311 308 310 311 314 315 317 315 321 319 315 315 315 311 315 314 313 306 297 278 273 249 258
Height
3184 3181 3176 3171 3171 3174 3174 3171 3173 3176 3177 3176 3177 3176 3179 3182 3184 3186 3188 3188 3189 3189 3189 3188 3188 3189 3189 3190 3190 3192 3192 3193 3193 3194 3194 3195 3195 3195 3196 3196 3196 3196 3195 3194
3188 3179 3175 3172 3176 3177 3178 3173 3175 3176 3177 3176 3176 3178 3180 3182 3184 3186 3187 3187 3189 3189 3189 3188 3187 3188 3189 3189 3191 3191 3192 3193 3194 3194 3194 3194 3195 3194 3194 3194 3194 3195 3194 3193
3184 3178 3173 3175 3177 3178 3179 3175 3175 3175 3176 3176 3178 3180 3182 3184 3185 3186 3186 3187 3187 3189 3189 3188 3186 3187 3188 3189 3189 3191 3192 3193 3193 3193 3194 3194 3194 3193 3193 3193 3192 3191 3192 3192
3177 3173 3173 3177 3176 3179 3177 3175 3175 3173 3176 3179 3177 3180 3181 3183 3183 3185 3185 3186 3186 3187 3188 3189 3188 3187 3187 3188 3188 3189 3191 3192 3192 3193 3192 3192 3192 3192 3192 3191 3190 3189 3185 3186
3180 3176 3177 3178 3179 3180 3178 3176 3175 3173 3175 3183 3178 3178 3183 3178 3180 3181 3183 3184 3185 3186 3187 3188 3188 3188 3187 3188 3188 3188 3189 3190 3190 3190 3190 3190 3188 3187 3187 3186 3183 3181 3182 3181
3181 3181 3180 3180 3179 3178 3177 3174 3174 3175 3176 3179 3171 3173 3179 3176 3179 3181 3182 3183 3184 3185 3185 3185 3184 3184 3184 3186 3187 3187 3187 3188 3188 3187 3187 3187 3185 3184 3183 3182 3180 3177 3174 3171
3178 3178 3178 3179 3177 3176 3175 3174 3169 3170 3175 3166 3165 3170 3172 3173 3175 3179 3180 3181 3182 3183 3183 3181 3180 3178 3177 3178 3182 3184 3183 3184 3184 3184 3184 3184 3183 3181 3180 3178 3176 3173 3171 3168
3178 3177 3175 3176 3176 3175 3174 3171 3171 3171 3159 3155 3160 3167 3173 3175 3175 3176 3181 3183 3184 3183 3181 3179 3174 3170 3171 3170 3172 3177 3179 3181 3180 3180 3179 3179 3177 3176 3175 3173 3171 3169 3165 3162
3182 3178 3174 3174 3174 3174 3173 3170 3170 3164 3158 3156 3169 3169 3179 3176 3178 3179 3182 3182 3181 3182 3181 3180 3177 3160 3165 3168 3164 3167 3173 3176 3177 3176 3175 3173 3171 3170 3168 3165 3162 3159 3156 3154
3176 3175 3171 3172 3172 3173 3173 3173 3169 3164 3164 3164 3163 3171 3173 3175 3178 3178 3180 3180 3180 3180 3179 3175 3173 3167 3168 3167 3161 3163 3167 3169 3170 3170 3169 3168 3166 3165 3163 3160 3157 3154 3151 3147
3173 3175 3173 3171 3171 3172 3173 3171 3169 3167 3167 3163 3162 3170 3171 3174 3176 3177 3177 3178 3177 3175 3173 3170 3168 3169 3171 3163 3157 3156 3161 3164 3164 3163 3163 3161 3160 3158 3156 3153 3149 3145 3140 3136
3170 3170 3167 3169 3170 3173 3173 3173 3173 3171 3171 3167 3168 3169 3169 3172 3174 3174 3174 3175 3174 3173 3172 3169 3167 3166 3165 3160 3156 3153 3155 3156 3156 3156 3155 3154 3153 3151 3148 3145 3140 3135 3131 3128
3169 3168 3165 3167 3175 3173 3172 3173 3174 3173 3172 3170 3170 3170 3167 3172 3171 3171 3171 3172 3171 3170 3169 3166 3163 3161 3160 3155 3153 3151 3150 3149 3148 3149 3149 3148 3146 3143 3141 3137 3132 3128 3123 3119
3171 3170 3170 3170 3173 3174 3173 3172 3173 3174 3173 3171 3169 3168 3167 3165 3166 3168 3168 3167 3167 3167 3166 3164 3158 3157 3153 3150 3146 3144 3141 3141 3140 3142 3142 3140 3138 3135 3131 3128 3124 3121 3117 3112
3173 3173 3172 3170 3170 3171 3171 3171 3170 3169 3170 3171 3171 3170 3166 3165 3165 3166 3165 3166 3165 3163 3161 3159 3154 3153 3147 3142 3132 3122 3121 3126 3131 3131 3134 3133 3130 3127 3124 3121 3117 3112 3109 3104
3170 3171 3171 3171 3171 3170 3169 3168 3168 3167 3166 3167 3165 3165 3165 3165 3164 3164 3164 3163 3159 3158 3156 3155 3152 3148 3141 3123 3129 3134 3115 3123 3115 3124 3126 3125 3121 3118 3115 3112 3108 3102 3099 3095
3169 3169 3171 3171 3170 3170 3169 3165 3164 3164 3165 3166 3166 3165 3163 3163 3163 3162 3160 3158 3155 3154 3152 3149 3147 3143 3135 3125 3101 3092 3088 3113 3110 3117 3117 3117 3114 3111 3108 3104 3096 3094 3088 3085
3168 3169 3170 3169 3168 3167 3164 3163 3162 3164 3166 3164 3164 3162 3161 3160 3161 3162 3157 3154 3152 3149 3147 3143 3140 3137 3130 3122 3112 3107 3114 3103 3113 3115 3112 3109 3104 3101 3096 3093 3088 3084 3081 3077
3165 3166 3167 3168 3168 3166 3163 3161 3161 3162 3165 3160 3160 3159 3159 3157 3156 3159 3153 3151 3148 3143 3141 3136 3134 3130 3124 3118 3112 3107 3109 3111 3109 3108 3106 3102 3097 3093 3088 3082 3078 3069 3069 3070
3160 3161 3162 3160 3162 3161 3160 3158 3157 3159 3161 3158 3157 3156 3155 3152 3151 3150 3146 3144 3143 3139 3134 3129 3126 3124 3120 3114 3111 3109 3108 3106 3104 3100 3095 3092 3088 3083 3078 3073 3072 3064 3033 3058
3157 3154 3156 3155 3155 3159 3155 3156 3155 3157 3160 3154 3153 3152 3149 3148 3147 3143 3141 3138 3134 3131 3128 3123 3120 3118 3114 3110 3108 3104 3100 3097 3093 3088 3083 3080 3076 3072 3067 3062 3058 3056 3051 3040
3153 3153 3154 3154 3154 3155 3153 3156 3155 3153 3150 3150 3148 3147 3145 3143 3141 3139 3135 3131 3128 3124 3121 3117 3114 3111 3107 3104 3099 3094 3090 3086 3081 3076 3072 3067 3062 3058 3053 3050 3045 3042 3039 3032
3153 3154 3153 3156 3156 3156 3152 3152 3149 3145 3144 3145 3145 3143 3141 3140 3137 3134 3130 3125 3122 3119 3115 3111 3107 3103 3099 3095 3090 3084 3080 3075 3070 3066 3061 3056 3050 3045 3041 3037 3034 3032 3030 3028
3153 3149 3150 3151 3154 3153 3149 3148 3143 3139 3140 3140 3140 3139 3138 3135 3132 3128 3123 3119 3116 3112 3108 3104 3099 3095 3090 3085 3080 3076 3071 3065 3061 3056 3050 3044 3038 3032 3029 3026 3023 3023 3023 3022
3150 3148 3147 3147 3147 3145 3147 3141 3137 3136 3136 3137 3135 3134 3131 3129 3126 3122 3117 3112 3109 3105 3100 3096 3090 3086 3081 3077 3072 3067 3062 3057 3052 3047 3041 3034 3027 3021 3015 3013 3011 3011 3013 3013
3145 3142 3145 3144 3140 3137 3141 3137 3135 3133 3132 3131 3130 3127 3125 3124 3120 3116 3111 3107 3103 3097 3092 3087 3083 3078 3073 3068 3063 3058 3053 3048 3042 3038 3032 3026 3020 3014 3008 3004 3002 3001 3004 3005